This is the latest recevied weather packets stored in our database for station/object N4HAC. If no packets are shown the sender has not sent any weather packets the latest 10 day(s).
| Time | Temp. | Humidity | Pressure | Rain* | Wind** | Luminosity | Snow |
|---|---|---|---|---|---|---|---|
| 1777313464 | 19.44° C | 53% | 1018.2 hPa | 0 mm | - | 813 W/m² | - |
| 1777313162 | 19.44° C | 47% | 1018.3 hPa | 0 mm | - | 825 W/m² | - |
| 1777312857 | 19.44° C | 48% | 1018.3 hPa | 0 mm | - | 846 W/m² | - |
| 1777312554 | 18.89° C | 49% | 1018.3 hPa | 0 mm | - | 873 W/m² | - |
| 1777312252 | 19.44° C | 54% | 1018.4 hPa | 0 mm | - | 892 W/m² | - |
| 1777311949 | 18.33° C | 59% | 1018.4 hPa | 0 mm | - | 910 W/m² | - |
| 1777311645 | 19.44° C | 54% | 1018.4 hPa | 0 mm | - | 962 W/m² | - |
| 1777311343 | 19.44° C | 57% | 1018.5 hPa | 0 mm | - | 947 W/m² | - |
| 1777311040 | 17.78° C | 52% | 1018.4 hPa | 0 mm | - | 932 W/m² | - |
| 1777310738 | 18.33° C | 53% | 1018.5 hPa | 0 mm | - | 915 W/m² | - |
| 1777310436 | 17.22° C | 57% | 1018.5 hPa | 0 mm | - | 234 W/m² | - |
| 1777310132 | 17.22° C | 55% | 1018.5 hPa | 0 mm | - | 279 W/m² | - |
| 1777309830 | 18.33° C | 55% | 1018.5 hPa | 0 mm | - | 300 W/m² | - |
| 1777309528 | 18.33° C | 51% | 1018.5 hPa | 0 mm | - | 902 W/m² | - |
| 1777309225 | 18.33° C | 53% | 1018.5 hPa | 0 mm | - | 893 W/m² | - |
| 1777308923 | 18.33° C | 52% | 1018.6 hPa | 0 mm | - | 865 W/m² | - |
| 1777308618 | 18.33° C | 54% | 1018.8 hPa | 0 mm | - | 869 W/m² | - |
| 1777308314 | 18.89° C | 53% | 1018.8 hPa | 0 mm | - | 866 W/m² | - |
| 1777308009 | 17.78° C | 53% | 1018.7 hPa | 0 mm | - | 865 W/m² | - |
| 1777307708 | 17.78° C | 53% | 1018.9 hPa | 0 mm | - | 863 W/m² | - |
| 1777307404 | 17.22° C | 53% | 1019 hPa | 0 mm | - | 868 W/m² | - |
| 1777307102 | 18.33° C | 52% | 1019.1 hPa | 0 mm | - | 861 W/m² | - |
| 1777306799 | 18.33° C | 52% | 1019 hPa | 0 mm | - | 860 W/m² | - |
| 1777306496 | 17.78° C | 54% | 1019.2 hPa | 0 mm | - | 857 W/m² | - |
| 1777306191 | 17.22° C | 55% | 1019.3 hPa | 0 mm | - | 851 W/m² | - |
* Rain latest hour (hover to see other rain measurements)
** Current wind speed in m/s (hover to see current wind gust speed)